Weather History for KD39 - January, 2013

Change the Weather History Date:

Thursday, January 24, 2013

  Actual Average (KGHW) Record (KGHW)
Temperature  
Mean Temperature 0 °F -  
Max Temperature 10 °F 21 °F 50 °F (1981)
Min Temperature -11 °F 4 °F -32 °F (1952)
Degree Days  
Heating Degree Days 66    
Moisture  
Dew Point -10 °F    
Average Humidity 67    
Maximum Humidity 72    
Minimum Humidity 62    
Precipitation  
Precipitation 0.00 in - - ()
Sea Level Pressure  
Sea Level Pressure 30.39 in    
Wind  
Wind Speed 8 mph (ESE)    
Max Wind Speed 16 mph    
Max Gust Speed 23 mph    
Visibility 10 miles    
Events Snow    
Averages and records for this station are not official NWS values.
T = Trace of Precipitation, MM = Missing Value Source: NWS Daily Summary

Daily Weather History Graph

Daily Weather History Graph

Search for Another Location

Airport or City:

Trip Planner

Search our weather history database for the weather conditions in past years. The results will help you decide how hot, cold, wet, or windy it might be!

Date:

Astronomy

Jan. 24, 2013 Rise Set
Actual Time 7:49 AM CST 5:14 PM CST
Civil Twilight 7:17 AM CST 5:47 PM CST
Nautical Twilight 6:40 AM CST 6:23 PM CST
Astronomical Twilight 6:05 AM CST 6:58 PM CST
Moon 3:16 PM CST (1/24) 5:49 AM CST (1/24)
Length of Visible Light 10h 30m
Length of Day
9h 25m
Waxing Gibbous, 94% of the Moon is Illuminated
Jan 24
Waxing Gibbous
Jan 26
Full
Feb 3
Last Quarter
Feb 10
New
Feb 17
First Quarter

Hourly Weather History & Observations

Time (CST) Temp. Windchill Dew Point Humidity Pressure Visibility Wind Dir Wind Speed Gust Speed Precip Events Conditions
12:15 AM -11.2 °F -24.8 °F -18.4 °F 70% 30.57 in 10.0 mi NNE 5.8 mph - N/A   Clear
12:35 AM -11.2 °F -23.0 °F -18.4 °F 70% 30.58 in 10.0 mi NNE 4.6 mph - N/A   Clear
12:55 AM -11.2 °F -20.6 °F -18.4 °F 70% 30.57 in 10.0 mi NNE 3.5 mph - N/A   Clear
1:15 AM -11.2 °F -23.0 °F -18.4 °F 70% 30.56 in 10.0 mi NE 4.6 mph - N/A   Clear
1:55 AM -9.4 °F -18.6 °F -18.4 °F 65% 30.58 in 10.0 mi NE 3.5 mph - N/A   Clear
2:15 AM -9.4 °F -18.6 °F -18.4 °F 65% 30.59 in 10.0 mi NE 3.5 mph - N/A   Clear
2:35 AM -9.4 °F -20.9 °F -18.4 °F 65% 30.60 in 10.0 mi East 4.6 mph - N/A   Clear
2:55 AM -9.4 °F -18.6 °F -18.4 °F 65% 30.60 in 10.0 mi ENE 3.5 mph - N/A   Clear
3:15 AM -9.4 °F -22.7 °F -18.4 °F 65% 30.59 in 10.0 mi East 5.8 mph - N/A   Clear
3:35 AM -9.4 °F -22.7 °F -18.4 °F 65% 30.60 in 10.0 mi East 5.8 mph - N/A   Clear
3:55 AM -9.4 °F -22.7 °F -18.4 °F 65% 30.58 in 10.0 mi East 5.8 mph - N/A   Clear
4:15 AM -9.4 °F -24.3 °F -18.4 °F 65% 30.57 in 10.0 mi East 6.9 mph - N/A   Clear
4:35 AM -9.4 °F -25.6 °F -18.4 °F 65% 30.56 in 10.0 mi East 8.1 mph - N/A   Clear
4:55 AM -9.4 °F -24.3 °F -18.4 °F 65% 30.56 in 10.0 mi East 6.9 mph - N/A   Clear
5:15 AM -9.4 °F -24.3 °F -18.4 °F 65% 30.57 in 10.0 mi East 6.9 mph - N/A   Clear
5:35 AM -9.4 °F -24.3 °F -18.4 °F 65% 30.58 in 10.0 mi ESE 6.9 mph - N/A   Scattered Clouds
5:55 AM -9.4 °F -20.9 °F -18.4 °F 65% 30.59 in 10.0 mi ESE 4.6 mph - N/A   Mostly Cloudy
6:15 AM -9.4 °F -22.7 °F -18.4 °F 65% 30.59 in 10.0 mi ESE 5.8 mph - N/A   Overcast
6:35 AM -9.4 °F -22.7 °F -18.4 °F 65% 30.58 in 10.0 mi ESE 5.8 mph - N/A   Mostly Cloudy
6:55 AM -9.4 °F -25.6 °F -18.4 °F 65% 30.58 in 10.0 mi ESE 8.1 mph - N/A   Overcast
7:15 AM -7.6 °F -20.6 °F -16.6 °F 65% 30.58 in 10.0 mi ESE 5.8 mph - N/A   Overcast
7:35 AM -7.6 °F -18.8 °F -16.6 °F 65% 30.57 in 10.0 mi ESE 4.6 mph - N/A   Overcast
7:55 AM -7.6 °F -22.1 °F -16.6 °F 65% 30.56 in 10.0 mi ESE 6.9 mph - N/A   Overcast
8:15 AM -7.6 °F -22.1 °F -16.6 °F 65% 30.55 in 10.0 mi ESE 6.9 mph - N/A   Overcast
8:35 AM -7.6 °F -23.4 °F -16.6 °F 65% 30.52 in 10.0 mi SE 8.1 mph - N/A   Overcast
8:55 AM -7.6 °F -24.6 °F -16.6 °F 65% 30.53 in 10.0 mi SE 9.2 mph - N/A   Scattered Clouds
9:15 AM -7.6 °F -23.4 °F -14.8 °F 71% 30.52 in 10.0 mi SE 8.1 mph - N/A   Clear
9:35 AM -7.6 °F -25.7 °F -14.8 °F 71% 30.52 in 10.0 mi SE 10.4 mph - N/A   Clear
9:55 AM -5.8 °F -23.4 °F -14.8 °F 65% 30.51 in 10.0 mi ESE 10.4 mph - N/A   Scattered Clouds
10:15 AM -5.8 °F -23.4 °F -14.8 °F 65% 30.51 in 10.0 mi ESE 10.4 mph - N/A   Clear
10:35 AM -5.8 °F -24.4 °F -14.8 °F 65% 30.50 in 10.0 mi SE 11.5 mph 16.1 mph N/A   Clear
10:55 AM -5.8 °F -21.2 °F -13.0 °F 71% 30.50 in 10.0 mi ESE 8.1 mph - N/A   Scattered Clouds
11:15 AM -4.0 °F -21.2 °F -13.0 °F 65% 30.50 in 10.0 mi ESE 10.4 mph - N/A   Mostly Cloudy
11:35 AM -4.0 °F -23.0 °F -13.0 °F 65% 30.48 in 10.0 mi SE 12.7 mph - N/A   Overcast
11:55 AM -4.0 °F -21.2 °F -13.0 °F 65% 30.47 in 10.0 mi SE 10.4 mph - N/A   Overcast
12:15 PM -4.0 °F -22.1 °F -13.0 °F 65% 30.45 in 10.0 mi ESE 11.5 mph 16.1 mph N/A   Overcast
12:35 PM -2.2 °F -18.0 °F -11.2 °F 66% 30.44 in 10.0 mi SE 9.2 mph - N/A   Overcast
12:55 PM -2.2 °F -19.9 °F -11.2 °F 66% 30.42 in 10.0 mi SE 11.5 mph - N/A   Scattered Clouds
1:15 PM -0.4 °F -16.7 °F -9.4 °F 66% 30.41 in 10.0 mi SE 10.4 mph - N/A   Clear
1:35 PM -0.4 °F -17.6 °F -9.4 °F 66% 30.39 in 10.0 mi SE 11.5 mph 17.3 mph N/A   Clear
1:55 PM -0.4 °F -18.4 °F -7.6 °F 72% 30.38 in 10.0 mi SE 12.7 mph - N/A   Clear
2:15 PM 1.4 °F -17.6 °F -7.6 °F 66% 30.35 in 10.0 mi ESE 15.0 mph - N/A   Clear
2:35 PM 1.4 °F -16.9 °F -7.6 °F 66% 30.35 in 10.0 mi SE 13.8 mph - N/A   Scattered Clouds
2:55 PM 1.4 °F -17.6 °F -7.6 °F 66% 30.33 in 10.0 mi SE 15.0 mph 19.6 mph N/A   Overcast
3:15 PM 1.4 °F -15.3 °F -7.6 °F 66% 30.33 in 10.0 mi SE 11.5 mph - N/A   Overcast
3:35 PM 1.4 °F -18.2 °F -5.8 °F 72% 30.29 in 10.0 mi SE 16.1 mph 20.7 mph N/A   Mostly Cloudy
3:55 PM 3.2 °F -14.6 °F -5.8 °F 66% 30.28 in 10.0 mi SE 13.8 mph 19.6 mph N/A   Scattered Clouds
4:15 PM 3.2 °F -13.1 °F -5.8 °F 66% 30.27 in 10.0 mi ESE 11.5 mph - N/A   Scattered Clouds
4:35 PM 3.2 °F -13.9 °F -5.8 °F 66% 30.27 in 10.0 mi SE 12.7 mph 18.4 mph N/A   Mostly Cloudy
4:55 PM 3.2 °F -13.9 °F -5.8 °F 66% 30.27 in 10.0 mi SE 12.7 mph - N/A   Overcast
5:15 PM 3.2 °F -15.9 °F -4.0 °F 72% 30.22 in 10.0 mi SE 16.1 mph - N/A   Overcast
5:35 PM 3.2 °F -15.3 °F -4.0 °F 72% 30.21 in 10.0 mi SE 15.0 mph 19.6 mph N/A   Overcast
5:55 PM 5.0 °F -13.6 °F -4.0 °F 66% 30.20 in 10.0 mi SE 16.1 mph 21.9 mph N/A   Overcast
6:15 PM 5.0 °F -11.6 °F -4.0 °F 66% 30.19 in 10.0 mi SE 12.7 mph 19.6 mph N/A   Overcast
6:35 PM 5.0 °F -11.6 °F -2.2 °F 72% 30.18 in 10.0 mi ESE 12.7 mph 17.3 mph N/A   Overcast
6:55 PM 5.0 °F -11.6 °F -2.2 °F 72% 30.17 in 10.0 mi ESE 12.7 mph - N/A   Overcast
7:15 PM 5.0 °F -10.0 °F -2.2 °F 72% 30.16 in 10.0 mi ESE 10.4 mph - N/A   Mostly Cloudy
7:35 PM 5.0 °F -8.1 °F -2.2 °F 72% 30.15 in 10.0 mi ESE 8.1 mph - N/A   Scattered Clouds
7:55 PM 6.8 °F -8.6 °F -2.2 °F 67% 30.12 in 10.0 mi SE 11.5 mph - N/A   Overcast
8:15 PM 8.6 °F -7.0 °F -0.4 °F 67% 30.11 in 10.0 mi SE 12.7 mph 23.0 mph N/A   Overcast
8:35 PM 8.6 °F -5.5 °F -0.4 °F 67% 30.14 in 10.0 mi SSE 10.4 mph - N/A   Mostly Cloudy
8:55 PM 8.6 °F -7.0 °F -0.4 °F 67% 30.14 in 10.0 mi SSE 12.7 mph - N/A   Overcast
9:15 PM 10.4 °F -4.8 °F -0.4 °F 62% 30.14 in 10.0 mi SSE 12.7 mph - N/A   Overcast
9:35 PM 10.4 °F -5.4 °F -0.4 °F 62% 30.13 in 10.0 mi SSE 13.8 mph - N/A   Overcast
9:55 PM 10.4 °F -4.1 °F -0.4 °F 62% 30.13 in 10.0 mi South 11.5 mph - N/A   Overcast
10:15 PM 10.4 °F -6.0 °F -0.4 °F 62% 30.11 in 10.0 mi South 15.0 mph - N/A   Overcast
10:35 PM 10.4 °F -5.4 °F -0.4 °F 62% 30.09 in 10.0 mi SSE 13.8 mph - N/A   Overcast
10:55 PM 10.4 °F -4.1 °F 1.4 °F 67% 30.08 in 10.0 mi SSE 11.5 mph - N/A Snow Light Snow
11:15 PM 10.4 °F -6.0 °F 1.4 °F 67% 30.07 in 10.0 mi South 15.0 mph 18.4 mph N/A   Overcast
11:35 PM 10.4 °F -4.8 °F 1.4 °F 67% 30.07 in 10.0 mi South 12.7 mph - N/A   Overcast
11:55 PM 10.4 °F -4.8 °F 1.4 °F 67% 30.06 in 10.0 mi South 12.7 mph - N/A   Overcast